Location: Caltech
(34.1382°N, 118.1253°W)
Time: 08:12:27
(UTC-07:00)

Iridium 75 - Visible Passes

Search period start: 29 March 2017 00:00
Search period end: 08 April 2017 00:00
Orbit: 776 x 779 km, 86.4° (Epoch: 27 March)

Date Brightness Start Highest point End Pass type
(mag) Time Alt. Az. Time Alt. Az. Time Alt. Az.
29 Mar 6.0 05:40:42 10° S 05:45:55 85° W 05:51:10 10° N visible
30 Mar 7.0 05:07:29 10° SSE 05:12:28 49° E 05:17:29 10° NNE visible
31 Mar 8.2 04:34:55 10° SE 04:39:08 25° E 04:43:21 10° NNE visible
31 Mar 6.9 06:15:11 10° SW 06:19:40 29° W 06:24:11 10° NNW visible
01 Apr 8.9 04:03:37 10° ESE 04:05:55 13° E 04:08:14 10° NE visible
01 Apr 6.1 05:40:56 10° SSW 05:46:03 57° W 05:51:11 10° N visible
02 Apr 6.2 05:07:20 10° S 05:12:32 74° E 05:17:43 10° N visible
03 Apr 7.4 04:34:22 10° SSE 04:39:07 37° E 04:43:54 10° NNE visible
04 Apr 8.5 04:02:10 10° SE 04:05:50 20° E 04:09:30 10° NE visible
04 Apr 6.5 05:41:24 10° SSW 05:46:12 38° W 05:51:02 10° NNW visible
05 Apr 5.9 05:07:26 10° S 05:12:37 74° W 05:17:50 10° N visible
06 Apr 6.6 04:34:05 10° SSE 04:39:09 57° E 04:44:16 10° N visible
07 Apr 7.8 04:01:24 10° SE 04:05:48 29° E 04:10:14 10° NNE visible
07 Apr 7.0 05:42:09 10° SW 05:46:25 25° W 05:50:43 10° NNW visible
